"Pseudo-MPEC" for P22orYF

Created 2026 Jul 22 17:35:11 UT using Find_Orb

Click here for an explanation of pseudo-MPECs

 
 Astrometry: 
     P22orYF 0C2026 07 06.47184720 11 08.712-21 04 19.73   ~7MHZ 21.36GVNEOCPF51
     P22orYF 0C2026 07 06.48437720 11 11.715-21 04 22.90   ~7MHZ 22.29GVNEOCPF51
     P22orYF 0C2026 07 09.46852920 23 39.948-21 15 16.37   ~7MHZ 21.55GVNEOCPF51
     P22orYF 0C2026 07 09.47840220 23 42.021-21 15 18.27   ~7MHZ 21.41GVNEOCPF51
     P22orYF 0C2026 07 09.48825620 23 44.107-21 15 20.14   ~7MHZ 21.17GVNEOCPF51
     P22orYF*0C2026 07 19.45397320 55 49.346-21 32 41.86   ~7JCZ 21.87wXNEOCPF52
     P22orYF 0C2026 07 19.46498820 55 50.776-21 32 42.50   ~7JCZ 21.57wXNEOCPF52
     P22orYF 0C2026 07 19.47594620 55 52.235-21 32 42.87   ~7JCZ 21.73wXNEOCPF52
     P22orYF 0C2026 07 19.48704620 55 53.662-21 32 43.48   ~7JCZ 21.75wXNEOCPF52
     P22orYF 0C2026 07 19.54431720 56 01.148-21 32 44.27   ~7JGo 21.59GVNEOCPF51
     P22orYF 0C2026 07 19.54496620 56 01.231-21 32 44.16   ~7JGo 21.68GVNEOCPF51
     P22orYF 1C2026 07 20.46182520 58 19.062-21 33 15.92   ~7KGo 21.72GVNEOCPT12
     P22orYF 1C2026 07 20.46406420 58 19.337-21 33 16.05   ~7KGo 21.91GVNEOCPT12
     P22orYF 1C2026 07 20.46630420 58 19.614-21 33 16.11   ~7KGo 21.55GVNEOCPT12
     P22orYF 1C2026 07 22.42360721 02 51.076-21 33 53.43   ~7MDZ 21.71GVNEOCPT12
     P22orYF 1C2026 07 22.42549921 02 51.285-21 33 53.52   ~7MDZ 21.79GVNEOCPT12
     P22orYF 1C2026 07 22.42739121 02 51.503-21 33 53.63   ~7MDZ 21.68GVNEOCPT12

Station data:
(F51) Pan-STARRS 1, Haleakala  (N20.707234 W156.255910)  US/Hawaii.
   Observers J. Herman, T. Lowe, P. Minguez, A. Schultz, I. Smith. Measurers
   K. Chambers, T. de Boer, J. Fairlamb, H. Gao, M. Huber, C.-C. Lin, E.
   Magnier, Y. Ramanjooloo, R. Wainscoat, R. Weryk. 1.8-m Ritchey-Chrétien +
   CCD.
(F52) Pan-STARRS 2, Haleakala  (N20.707382 W156.255910)  US/Hawaii.
   Observers J. Herman, T. Lowe, P. Minguez, A. Schultz, I. Smith. Measurers
   K. Chambers, T. de Boer, J. Fairlamb, H. Gao, M. Huber, C.-C. Lin, E.
   Magnier, Y. Ramanjooloo, R. Wainscoat, R. Weryk. 1.8-m Ritchey-Chrétien +
   CCD.
(T12) Mauna Kea-UH/Tholen NEO Follow-Up (2.24-m)  (N19.822991 W155.469434)
   US/Hawaii.  Observer R. Weryk. 2.24-m f/10.1 University of Hawaii
   reflector.

Orbital elements:  P22orYF
   Perihelion 2026 Jun 22.657270 +/- 0.00917 TT = 15:46:28.1 (JD 2461214.157270)
Epoch 2026 Jul 22.0 TT = JDT 2461243.5   Earth MOID: 0.1224   Ma: 0.0036
M   8.086545909 +/- 0.046           (J2000 ecliptic)             AutoNEOCP
n   0.275589415 +/- 0.00169         Peri.  169.500929 +/- 0.010
a   2.338627362 +/- 0.00955         Node   102.789493 +/- 0.0047
e   0.51310079 +/- 0.00184          Incl.    2.124388 +/- 0.0054
P   3.57636                H 24.71  G  0.15   U  8.5
q 1.138675810 +/- 0.000345    Q 3.538578914 +/- 0.0187
From 17 observations 2026 July 6-22; mean residual 0".09
Residuals in arcseconds: 
260706 F51  .20-  .09-    260719 F52  .23-  .05+    260720 T12  .00   .08-    
260706 F51  .20+  .00     260719 F52  .21+  .18+    260720 T12  .01+  .06-    
260709 F51  .09+  .02+    260719 F52  .04-  .00     260722 T12  .02-  .03+    
260709 F51  .09-  .06+    260719 F51  .08+  .02+    260722 T12  .05-  .02+    
260709 F51  .01-  .04+    260719 F51  .04+  .13+    260722 T12  .05+  .01-    
260719 F52  .12-  .09+    260720 T12  .01+  .04-    

Ephemerides (geocentric):
Date (UTC) HH   RA             Dec           delta  r     elong  mag " sig PA
---- --------  ------------   ------------  ------ ------ -----  --- --------
2026 07 22 18  21 03 32.594   -21 33 24.76  .17789 1.1898 166.7 22.0 .112 142
2026 07 22 19  21 03 37.981   -21 33 25.09  .17802 1.1899 166.7 22.0 .113 142
2026 07 22 20  21 03 43.357   -21 33 25.41  .17816 1.1900 166.8 22.0 .114 141
2026 07 22 21  21 03 48.722   -21 33 25.71  .17829 1.1902 166.8 22.0 .115 140
2026 07 22 22  21 03 54.075   -21 33 26.00  .17842 1.1903 166.8 22.0 .116 139
2026 07 22 23  21 03 59.417   -21 33 26.28  .17856 1.1905 166.8 22.0 .117 138
2026 07 23 00  21 04 04.748   -21 33 26.53  .17869 1.1906 166.8 22.0 .119 138
2026 07 23 01  21 04 10.067   -21 33 26.78  .17882 1.1907 166.8 22.0 .120 137
2026 07 23 02  21 04 15.375   -21 33 27.01  .17896 1.1909 166.9 22.0 .122 136
2026 07 23 03  21 04 20.672   -21 33 27.22  .17909 1.1910 166.9 22.0 .123 135
2026 07 23 04  21 04 25.957   -21 33 27.42  .17923 1.1911 166.9 22.0 .124 135
2026 07 23 05  21 04 31.232   -21 33 27.60  .17936 1.1913 166.9 22.0 .126 134
2026 07 23 06  21 04 36.495   -21 33 27.77  .17950 1.1914 166.9 22.0 .127 133
2026 07 23 07  21 04 41.747   -21 33 27.92  .17963 1.1916 166.9 22.1 .129 132
2026 07 23 08  21 04 46.987   -21 33 28.06  .17976 1.1917 167.0 22.1 .131 132
2026 07 23 09  21 04 52.217   -21 33 28.19  .17990 1.1918 167.0 22.1 .132 131
2026 07 23 10  21 04 57.435   -21 33 28.29  .18003 1.1920 167.0 22.1 .134 130
2026 07 23 11  21 05 02.643   -21 33 28.39  .18017 1.1921 167.0 22.1 .136 130
2026 07 23 12  21 05 07.839   -21 33 28.47  .18031 1.1923 167.0 22.1 .137 129
2026 07 23 13  21 05 13.024   -21 33 28.53  .18044 1.1924 167.0 22.1 .139 129
2026 07 23 14  21 05 18.198   -21 33 28.59  .18058 1.1925 167.1 22.1 .141 128
2026 07 23 15  21 05 23.361   -21 33 28.62  .18071 1.1927 167.1 22.1 .143 127
2026 07 23 16  21 05 28.513   -21 33 28.64  .18085 1.1928 167.1 22.1 .145 127
2026 07 23 17  21 05 33.654   -21 33 28.65  .18098 1.1930 167.1 22.1 .147 126
2026 07 23 18  21 05 38.784   -21 33 28.64  .18112 1.1931 167.1 22.1 .149 126
2026 07 23 19  21 05 43.903   -21 33 28.62  .18126 1.1932 167.2 22.1 .151 125
2026 07 23 20  21 05 49.011   -21 33 28.59  .18139 1.1934 167.2 22.1 .153 125
2026 07 23 21  21 05 54.108   -21 33 28.53  .18153 1.1935 167.2 22.1 .155 124
2026 07 23 22  21 05 59.194   -21 33 28.47  .18167 1.1937 167.2 22.1 .157 123
2026 07 23 23  21 06 04.269   -21 33 28.39  .18180 1.1938 167.2 22.1 .159 123
2026 07 24 00  21 06 09.333   -21 33 28.30  .18194 1.1939 167.2 22.1 .161 122
2026 07 24 01  21 06 14.387   -21 33 28.19  .18208 1.1941 167.3 22.1 .163 122
2026 07 24 02  21 06 19.429   -21 33 28.07  .18222 1.1942 167.3 22.1 .166 122
2026 07 24 03  21 06 24.461   -21 33 27.93  .18235 1.1944 167.3 22.1 .168 121
2026 07 24 04  21 06 29.482   -21 33 27.78  .18249 1.1945 167.3 22.1 .170 121
2026 07 24 05  21 06 34.492   -21 33 27.62  .18263 1.1947 167.3 22.1 .173 120
2026 07 24 06  21 06 39.492   -21 33 27.44  .18277 1.1948 167.3 22.1 .175 120
2026 07 24 07  21 06 44.480   -21 33 27.24  .18291 1.1949 167.4 22.1 .177 119
2026 07 24 08  21 06 49.458   -21 33 27.04  .18304 1.1951 167.4 22.1 .180 119
2026 07 24 09  21 06 54.425   -21 33 26.82  .18318 1.1952 167.4 22.1 .182 119
2026 07 24 10  21 06 59.382   -21 33 26.58  .18332 1.1954 167.4 22.1 .185 118
2026 07 24 11  21 07 04.328   -21 33 26.33  .18346 1.1955 167.4 22.1 .187 118
2026 07 24 12  21 07 09.263   -21 33 26.07  .18360 1.1956 167.4 22.1 .190 117
2026 07 24 13  21 07 14.187   -21 33 25.79  .18374 1.1958 167.5 22.1 .192 117
2026 07 24 14  21 07 19.101   -21 33 25.50  .18388 1.1959 167.5 22.1 .195 117
2026 07 24 15  21 07 24.004   -21 33 25.20  .18402 1.1961 167.5 22.1 .198 116
2026 07 24 16  21 07 28.897   -21 33 24.88  .18416 1.1962 167.5 22.1 .200 116
2026 07 24 17  21 07 33.779   -21 33 24.55  .18430 1.1964 167.5 22.1 .203 116